Location: Dehesa de la Cepeda
(40.6574°N, 4.3013°W)
Time: 19:03:49
(UTC+00:00)

Explorer 7 - Pass Details

Date: 13 August 2021
Orbit: 484 x 676 km, 50.3° (Epoch: 17 September)

Event Time Altitude Azimuth Distance (km) Brightness Sun altitude
Rises 04:25:07 0° 302° (WNW) 2,550 10.0 -11.2°
Reaches altitude 10° 04:27:39 10° 319° (NW) 1,677 9.2 -10.8°
Maximum altitude 04:30:37 21° 11° (N) 1,149 9.0 -10.3°
Drops below altitude 10° 04:33:38 10° 62° (ENE) 1,720 11.0 -9.8°
Sets 04:36:16 0° 79° (E) 2,635 11.9 -9.4°
